Sanborn, NY

4:46 AM EST on December 08, 2016 (GMT -0500)
Niagara Falls International

Weather History for KIAG - March, 2014

Change the Weather History Date:

Tuesday, March 18, 2014

  Actual Average Record
Temperature  
Mean Temperature 32 °F -  
Max Temperature 45 °F 37 °F 73 °F (2012)
Min Temperature 19 °F 22 °F 7 °F (1993)
Degree Days  
Heating Degree Days 34    
Moisture  
Dew Point 17 °F    
Average Humidity 60    
Maximum Humidity 73    
Minimum Humidity 37    
Precipitation  
Precipitation 0.00 in - - ()
Sea Level Pressure  
Sea Level Pressure 30.12 in    
Wind  
Wind Speed 7 mph (East)    
Max Wind Speed 14 mph    
Max Gust Speed -    
Visibility 10 miles    
Events      
Averages and records for this station are not official NWS values.
T = Trace of Precipitation, MM = Missing Value Source: NWS Daily Summary

Daily Weather History Graph

Daily Weather History Graph

Search for Another Location

Airport or City:

Trip Planner

Search our weather history database for the weather conditions in past years. The results will help you decide how hot, cold, wet, or windy it might be!

Date:

Astronomy

Mar. 18, 2014 Rise Set
Actual Time 7:22 AM EDT 7:25 PM EDT
Civil Twilight 6:54 AM EDT 7:54 PM EDT
Nautical Twilight 6:21 AM EDT 8:27 PM EDT
Astronomical Twilight 5:47 AM EDT 9:01 PM EDT
Moon 9:45 PM EDT (3/18) 8:07 AM EDT (3/18)
Length of Visible Light 12h 59m
Length of Day
12h 03m
Waning Gibbous, 96% of the Moon is Illuminated
Mar 18
Waning Gibbous
Mar 23
Last Quarter
Mar 30
New
Apr 7
First Quarter
Apr 15
Full

Hourly Weather History & Observations

Time (EDT) Temp. Windchill Dew Point Humidity Pressure Visibility Wind Dir Wind Speed Gust Speed Precip Events Conditions
12:53 AM 19.0 °F 10.0 °F 10.0 °F 68% 30.09 in 10.0 mi East 6.9 mph - N/A   Clear
1:53 AM 19.0 °F 11.1 °F 10.0 °F 68% 30.10 in 10.0 mi East 5.8 mph - N/A   Clear
2:53 AM 19.0 °F 11.1 °F 10.0 °F 68% 30.09 in 10.0 mi East 5.8 mph - N/A   Partly Cloudy
3:53 AM 19.9 °F - 10.0 °F 65% 30.10 in 10.0 mi North - - N/A   Overcast
4:53 AM 19.0 °F - 10.9 °F 71% 30.10 in 10.0 mi North - - N/A   Scattered Clouds
5:53 AM 19.0 °F - 10.9 °F 71% 30.12 in 10.0 mi North - - N/A   Mostly Cloudy
6:53 AM 19.9 °F - 12.0 °F 71% 30.12 in 10.0 mi North - - N/A   Overcast
7:04 AM 19.9 °F 13.4 °F 10.9 °F 68% 30.07 in 10.0 mi SE 4.6 mph - N/A   Mostly Cloudy
7:53 AM 21.0 °F 14.6 °F 10.9 °F 65% 30.14 in 10.0 mi ESE 4.6 mph - N/A   Mostly Cloudy
8:53 AM 25.0 °F 20.7 °F 12.0 °F 58% 30.16 in 10.0 mi ESE 3.5 mph - N/A   Scattered Clouds
9:53 AM 30.9 °F - 12.9 °F 47% 30.15 in 10.0 mi Calm Calm - N/A   Scattered Clouds
10:53 AM 36.0 °F 29.6 °F 12.0 °F 37% 30.14 in 10.0 mi East 8.1 mph - N/A   Partly Cloudy
11:53 AM 37.9 °F 32.7 °F 15.1 °F 39% 30.15 in 10.0 mi NE 6.9 mph - N/A   Partly Cloudy
12:53 PM 39.9 °F 35.8 °F 16.0 °F 38% 30.15 in 10.0 mi ENE 5.8 mph - N/A   Partly Cloudy
1:53 PM 42.1 °F 39.2 °F 21.0 °F 43% 30.14 in 10.0 mi East 4.6 mph - N/A   Partly Cloudy
2:53 PM 44.1 °F 42.5 °F 23.0 °F 43% 30.14 in 10.0 mi Variable 3.5 mph - N/A   Partly Cloudy
3:53 PM 42.1 °F 34.9 °F 26.1 °F 53% 30.13 in 10.0 mi NNE 13.8 mph - N/A   Partly Cloudy
4:53 PM 41.0 °F 33.9 °F 26.1 °F 55% 30.14 in 10.0 mi NE 12.7 mph - N/A   Partly Cloudy
5:53 PM 39.0 °F 31.4 °F 26.1 °F 60% 30.14 in 10.0 mi NE 12.7 mph - N/A   Partly Cloudy
6:53 PM 36.0 °F 28.0 °F 25.0 °F 64% 30.13 in 10.0 mi NE 11.5 mph - N/A   Partly Cloudy
7:53 PM 33.1 °F 25.5 °F 24.1 °F 70% 30.13 in 10.0 mi ENE 9.2 mph - N/A   Partly Cloudy
8:53 PM 32.0 °F 24.2 °F 24.1 °F 73% 30.11 in 10.0 mi ENE 9.2 mph - N/A   Partly Cloudy
9:53 PM 32.0 °F 25.6 °F 23.0 °F 69% 30.11 in 10.0 mi ENE 6.9 mph - N/A   Partly Cloudy
10:53 PM 30.9 °F 25.2 °F 21.9 °F 69% 30.10 in 10.0 mi East 5.8 mph - N/A   Partly Cloudy
11:53 PM 30.9 °F 22.8 °F 21.9 °F 69% 30.08 in 10.0 mi East 9.2 mph - N/A   Clear